Tracking 31027 objects as of 19-Jul-2025
HD Live streaming from Space Station
objects crossing your sky now

STARLINK-30578

Track STARLINK-30578 now!
10-day predictions
STARLINK-30578 is classified as:


NORAD ID: 58093
Int'l Code: 2023-160U
Perigee: 565.2 km
Apogee: 567.3 km
Inclination: 43.0 °
Period: 95.8 minutes
Semi major axis: 6937 km
RCS: Unknown
Launch date: October 18, 2023
Source: United States (US)
Launch site: AIR FORCE EASTERN TEST RANGE (AFETR)
Your satellite tracking list
THORAD DELTA 1 DEB
Track 1 satellite(s)




NASA's NSSDC Master Catalog

Two Line Element Set (TLE):
1 58093U 23160U   25199.54654447 -.00000771  00000-0 -42016-4 0  9996
2 58093  43.0021 272.7773 0001548 278.4858  81.5809 15.02534221 97699
Source of the keplerian elements: AFSPC